This demonstration page uses our WeatherBlox Daily Observations layout. Learn more.

Left ArrowRight Arrow

Hourly Observations for August 31, 2021

Temp ( °F °C ) Dew Point ( °F °C ) Humidity (%) Winds ( mph kmh ) Pressure ( in mb ) Visibility ( mi km ) Precip ( " mm )
12:51 am 00:51 Cloudy 72 22.2 71 21.7 97 97 NW 3 6 29.72 1006 10 16 0.01 0.25
1:51 am 01:51 Mostly Cloudy 72 22.2 70 21.1 94 94 SSE 6 9 29.69 1005 10 16 0.00 0.00
2:51 am 02:51 Clear 72 22.2 69 20.6 91 91 SW 5 7 29.69 1005 10 16 0.00 0.00
3:51 am 03:51 Clear 72 22.2 69 20.6 91 91 Calm 29.68 1005 10 16 0.00 0.00
4:51 am 04:51 Clear 71 21.7 69 20.6 94 94 SE 5 7 29.68 1005 10 16 0.00 0.00
5:51 am 05:51 Clear 71 21.7 69 20.6 94 94 ENE 6 9 29.74 1007 10 16 0.00 0.00
6:51 am 06:51 Sunny 73 22.8 69 20.6 87 87 NNE 6 9 29.74 1007 10 16 0.00 0.00
7:51 am 07:51 Sunny 78 25.6 67 19.4 69 69 Calm 29.74 1007 10 16 0.00 0.00
8:51 am 08:51 Sunny 80 26.7 67 19.4 64 64 Calm 29.73 1007 10 16 0.00 0.00
9:51 am 09:51 Sunny 83 28.3 66 18.9 57 57 SSW 6 9 29.73 1007 10 16 0.00 0.00
10:51 am 10:51 Sunny 87 30.6 66 18.9 50 50 VRB 5 7 29.71 1006 10 16 0.00 0.00
11:51 am 11:51 Sunny 89 31.7 63 17.2 42 42 undefined N/A 29.67 1005 10 16 0.00 0.00
12:51 pm 12:51 Sunny 90 32.2 61 16.1 38 38 VRB 3 6 29.64 1004 10 16 0.00 0.00
1:51 pm 13:51 Sunny 92 33.3 60 15.6 34 34 SSW 7 11 29.60 1002 10 16 0.00 0.00
2:51 pm 14:51 Sunny 93 33.9 61 16.1 34 34 VRB 7 11 29.56 1001 10 16 0.00 0.00
3:51 pm 15:51 Sunny 94 34.4 62 16.7 35 35 undefined N/A 29.54 1000 10 16 0.00 0.00
4:51 pm 16:51 Mostly Cloudy 89 31.7 65 18.3 45 45 NNW 18 30 29.59 1002 10 16 0.00 0.00
5:04 pm 17:04 Mostly Cloudy 86 30 64 18 49 49 NNW 14 22 29.53 1000 10 16 0.00 0.00
5:51 pm 17:51 Mostly Cloudy with Light Rain 80 26.7 67 19.4 64 64 NW 13 20 29.62 1003 10 16 0.00 0.00
6:51 pm 18:51 Cloudy with Light Rain 80 26.7 67 19.4 64 64 NNW 3 6 29.66 1004 10 16 0.00 0.00
7:51 pm 19:51 Cloudy with Rain 71 21.7 70 21.1 96 96 SW 5 7 29.71 1006 4 6 0.07 1.78
8:02 pm 20:02 Cloudy with Heavy Rain 70 21.1 70 21.1 100 100 WNW 3 6 29.71 1006 2 3 0.06 1.52
8:16 pm 20:16 Cloudy with Light Rain 71 21.7 70 21.1 96 96 NNW 3 6 29.71 1006 4 6 0.11 2.79
8:39 pm 20:39 Mostly Cloudy with Light Rain 71 21.7 71 21.7 100 100 N 5 7 29.72 1006 9 14 0.15 3.81
8:51 pm 20:51 Partly Cloudy with Light Rain 71 21.7 71 21.7 100 100 NNW 5 7 29.73 1007 10 16 0.16 4.06
9:28 pm 21:28 Mostly Cloudy 72 22 72 22 100 100 W 6 9 29.72 1006 10 16 0.00 0.00
9:51 pm 21:51 Cloudy 71 21.7 71 21.7 100 100 WNW 6 9 29.72 1006 10 16 0.01 0.25
10:40 pm 22:40 Cloudy 71 21.7 71 21.7 100 100 WNW 6 9 29.71 1006 10 16 0.00 0.00
10:51 pm 22:51 Cloudy 71 21.7 70 21.1 96 96 NW 6 9 29.71 1006 10 16 0.00 0.00
11:44 pm 23:44 Cloudy with Rain 71 21.7 70 21.1 96 96 Calm 29.71 1006 4 6 0.01 0.25
11:48 pm 23:48 Cloudy with Heavy Rain 72 22 70 21 94 94 Calm 29.70 1006 2 3 0.02 0.51
11:51 pm 23:51 Cloudy with Heavy Rain 71 21.7 70 21.1 96 96 NW 5 7 29.69 1005 1 2 0.04 1.02
11:59 pm 23:59 Cloudy with Light Rain 70 21.1 70 21.1 100 100 WNW 3 6 29.71 1006 3 5 0.08 2.03

Powered by AerisWeather